[Date Prev][Date Next][Thread Prev][Thread Next] - [Date Index][Thread Index][Author Index]

2 Line ISS Keps 5-30



ISS
1 25544U 98067A   01150.51741823  .00033880  00000-0  39955-3 0   186
2 25544  51.5687 177.8675 0017731 102.8210  47.1992 15.60843162144319

----
Via the sarex mailing list at AMSAT.ORG courtesy of AMSAT-NA.
To unsubscribe, send "unsubscribe sarex" to Majordomo@amsat.org



AMSAT Top AMSAT Home